Weather History for Winnemucca, NV

Change the Weather History Date:

Thursday, January 1, 2009

  Actual Average Record
Temperature  
Mean Temperature 33 °F 29 °F  
Max Temperature 46 °F 40 °F 62 °F (1997)
Min Temperature 19 °F 17 °F -19 °F (1975)
Degree Days  
Heating Degree Days 32 36  
Month to date heating degree days 32 36  
Since 1 July heating degree days 2605 2709  
Cooling Degree Days 0 0  
Month to date cooling degree days 0 0  
Year to date cooling degree days 0 0  
Moisture  
Dew Point 27 °F    
Average Humidity 71    
Maximum Humidity 88    
Minimum Humidity 53    
Precipitation  
Precipitation 0.00 in 0.03 in 0.46 in (1922)
Month to date precipitation 0.00 0.03  
Year to date precipitation 0.00 0.03  
Snow  
Snow 0.00 in 0.10 in 3.20 in (1892)
Month to date snowfall 0.0 0.1  
Since 1 July snowfall 20.6 8.9  
Snow Depth 3.00 in    
Sea Level Pressure  
Sea Level Pressure 30.04 in    
Wind  
Wind Speed 10 mph (South)    
Max Wind Speed 21 mph    
Max Gust Speed 29 mph    
Visibility 10 miles    
Events      
T = Trace of Precipitation, MM = Missing Value Source: NWS Daily Summary

Daily Weather History Graph

Daily Weather History Graph

Search for Another Location

Airport:

Trip Planner

Search our weather history database for the weather conditions in past years. The results will help you decide how hot, cold, wet, or windy it might be!

Date:

Astronomy

Jan. 01, 2009 Rise Set
Actual Time 7:15 AM PST 4:34 PM PST
Civil Twilight 6:45 AM PST 5:05 PM PST
Nautical Twilight 6:10 AM PST 5:39 PM PST
Astronomical Twilight 5:37 AM PST 6:12 PM PST
Moon 10:04 AM PST (1/1) 9:52 PM PST (1/1)
Length of Visible Light 10h 20m
Length of Day
9h 18m
Waxing Crescent, 24% of the Moon is Illuminated
Jan 1
Waxing Crescent
Jan 4
First Quarter
Jan 10
Full
Jan 17
Last Quarter
Jan 25
New

Hourly Weather History & Observations

Time (PST) Temp. Windchill Dew Point Humidity Pressure Visibility Wind Dir Wind Speed Gust Speed Precip Events Conditions
12:56 AM 21.0 °F - 18.0 °F 88% 30.16 in 10.0 mi Calm Calm - N/A   Clear
1:56 AM 23.0 °F - 19.0 °F 85% 30.17 in 10.0 mi Calm Calm - N/A   Overcast
2:56 AM 27.0 °F - 21.0 °F 78% 30.15 in 10.0 mi Calm Calm - N/A   Overcast
3:56 AM 35.1 °F 26.9 °F 23.0 °F 61% 30.12 in 10.0 mi South 11.5 mph - N/A   Overcast
4:56 AM 35.1 °F 26.9 °F 23.0 °F 61% 30.10 in 10.0 mi South 11.5 mph - N/A   Overcast
5:56 AM 37.0 °F 27.7 °F 24.1 °F 59% 30.10 in 10.0 mi South 16.1 mph - N/A   Scattered Clouds
6:56 AM 37.0 °F 28.1 °F 24.1 °F 59% 30.09 in 10.0 mi South 15.0 mph 23.0 mph N/A   Clear
7:56 AM 37.0 °F 28.1 °F 25.0 °F 62% 30.10 in 10.0 mi South 15.0 mph - N/A   Partly Cloudy
8:56 AM 39.0 °F 31.4 °F 25.0 °F 57% 30.11 in 10.0 mi South 12.7 mph - N/A   Partly Cloudy
9:56 AM 41.0 °F 35.2 °F 26.1 °F 55% 30.13 in 10.0 mi South 9.2 mph - N/A   Mostly Cloudy
10:56 AM 43.0 °F 36.4 °F 27.0 °F 53% 30.13 in 10.0 mi SSE 12.7 mph 18.4 mph N/A   Mostly Cloudy
11:56 AM 44.1 °F 38.6 °F 28.9 °F 55% 30.07 in 10.0 mi SSW 10.4 mph - N/A   Overcast
12:56 PM 46.0 °F 41.9 °F 30.0 °F 54% 30.06 in 10.0 mi SSE 8.1 mph 18.4 mph N/A   Clear
1:56 PM 46.0 °F 42.5 °F 30.9 °F 56% 30.03 in 10.0 mi South 6.9 mph - N/A   Clear
2:56 PM 45.0 °F 42.6 °F 30.9 °F 58% 30.02 in 10.0 mi SSE 4.6 mph - N/A   Clear
3:56 PM 41.0 °F - 30.0 °F 65% 29.99 in 10.0 mi Calm Calm - N/A   Clear
4:56 PM 41.0 °F 33.5 °F 28.9 °F 62% 29.97 in 10.0 mi South 13.8 mph 18.4 mph N/A   Clear
5:56 PM 42.1 °F 34.5 °F 30.0 °F 62% 29.95 in 10.0 mi South 15.0 mph - N/A   Clear
6:56 PM 43.0 °F 36.4 °F 32.0 °F 65% 29.94 in 10.0 mi SSW 12.7 mph - N/A   Clear
7:56 PM 41.0 °F 34.3 °F 30.9 °F 67% 29.94 in 10.0 mi South 11.5 mph - N/A   Clear
8:56 PM 39.0 °F 30.3 °F 30.9 °F 73% 29.92 in 10.0 mi South 16.1 mph - N/A   Clear
9:56 PM 37.9 °F 30.5 °F 30.9 °F 76% 29.91 in 10.0 mi South 11.5 mph - N/A   Clear
10:56 PM 39.0 °F 31.0 °F 30.9 °F 73% 29.88 in 10.0 mi South 13.8 mph - N/A   Clear
11:56 PM 42.1 °F 33.6 °F 32.0 °F 67% 29.82 in 10.0 mi SSE 18.4 mph - N/A   Mostly Cloudy